CW4199 Weather Reports


Display with metric or nautical units.
time (UTC)temp
F
wind
direction
speed
MPH
gust
MPH
rain 1hr
in
rain 24hr
in
rain mn
in
humidity
%
barometer
mb
20260507153405 61 44 4.0 12.0 0.00 0.07 0.00 61 1018.5
20260507152905 60 39 3.0 12.0 0.00 0.07 0.00 64 1018.6
20260507152405 60 19 2.0 10.0 0.00 0.07 0.00 63 1018.5
20260507151904 61 348 4.0 9.0 0.00 0.07 0.00 65 1018.5
20260507151405 60 338 2.0 9.0 0.00 0.07 0.00 68 1018.4
20260507150905 59 18 4.0 7.0 0.00 0.07 0.00 68 1018.3
20260507145905 59 82 3.0 7.0 0.00 0.07 0.00 69 1018.2
20260507145405 58 333 2.0 6.0 0.00 0.07 0.00 71 1018.3
20260507143905 58 75 3.0 7.0 0.00 0.07 0.00 72 1018.4
20260507143404 57 84 5.0 9.0 0.00 0.07 0.00 71 1018.3
20260507142904 57 67 4.0 7.0 0.00 0.07 0.00 73 1018.5
20260507142405 57 63 6.0 12.0 0.00 0.07 0.00 74 1018.4
20260507141905 56 66 6.0 12.0 0.00 0.07 0.00 74 1018.4
20260507141405 56 93 3.0 9.0 0.00 0.07 0.00 76 1018.2
20260507140905 56 87 3.0 8.0 0.00 0.07 0.00 75 1018.2
20260507135905 55 28 7.0 12.0 0.00 0.07 0.00 76 1018.2
20260507135405 55 36 5.0 9.0 0.00 0.07 0.00 76 1018.3
20260507134905 55 52 5.0 8.0 0.00 0.07 0.00 76 1018.4
20260507134404 55 55 5.0 7.0 0.00 0.07 0.00 77 1018.3
20260507133904 55 77 5.0 9.0 0.00 0.07 0.00 78 1018.2
20260507133405 55 74 3.0 6.0 0.00 0.07 0.00 80 1018.2
20260507132405 54 28 2.0 5.0 0.00 0.07 0.00 81 1018.2
20260507131906 54 57 2.0 5.0 0.00 0.07 0.00 81 1018.3
20260507131404 53 57 4.0 8.0 0.00 0.07 0.00 81 1018.0
20260507130904 53 72 3.0 6.0 0.00 0.07 0.00 82 1017.8
20260507130404 53 79 3.0 8.0 0.00 0.07 0.00 83 1017.8
20260507125905 52 82 2.0 8.0 0.00 0.07 0.00 85 1017.7
20260507125405 51 50 2.0 5.0 0.00 0.07 0.00 86 1017.7
20260507124905 51 66 2.0 5.0 0.00 0.07 0.00 86 1017.6
20260507124405 51 53 3.0 7.0 0.00 0.07 0.00 88 1017.6
20260507123404 51 5 1.0 3.0 0.00 0.07 0.00 90 1017.4
20260507122905 50 5 1.0 3.0 0.00 0.07 0.00 90 1017.5
20260507122405 50 357 2.0 3.0 0.00 0.07 0.00 91 1017.4
20260507121905 50 355 2.0 3.0 0.00 0.07 0.00 92 1017.4
20260507121405 49 9 2.0 6.0 0.00 0.07 0.00 92 1017.4
20260507120905 49 47 1.0 3.0 0.00 0.07 0.00 93 1017.3
20260507120405 48 355 1.0 3.0 0.00 0.07 0.00 93 1017.3
20260507115405 47 342 2.0 3.0 0.00 0.07 0.00 93 1017.1
20260507114405 47 324 1.0 3.0 0.00 0.07 0.00 94 1017.0
20260507113905 46 323 1.0 3.0 0.00 0.07 0.00 93 1017.0
20260507113405 46 345 0.0 2.0 0.00 0.08 0.00 93 1016.9
20260507112905 46 345 0.0 1.0 0.00 0.08 0.00 93 1016.9
20260507112405 45 345 0.0 1.0 0.00 0.08 0.00 93 1016.8
20260507110904 45 342 0.0 0.0 0.00 0.09 0.00 93 1016.8
20260507110405 45 342 0.0 1.0 0.00 0.11 0.00 92 1016.7
20260507105905 46 342 0.0 1.0 0.00 0.13 0.00 93 1016.8
20260507105404 46 343 0.0 0.0 0.00 0.15 0.00 92 1016.7
20260507104905 46 343 0.0 1.0 0.00 0.17 0.00 92 1016.8
20260507104404 46 343 1.0 2.0 0.00 0.19 0.00 93 1016.8
20260507103405 47 344 1.0 2.0 0.00 0.20 0.00 92 1016.7
20260507102904 47 344 1.0 2.0 0.00 0.20 0.00 93 1016.7
20260507101905 47 346 2.0 3.0 0.00 0.21 0.00 93 1016.6
20260507101405 47 345 2.0 3.0 0.00 0.21 0.00 93 1016.7
20260507100905 47 348 2.0 3.0 0.00 0.21 0.00 92 1016.6
20260507100405 47 349 1.0 3.0 0.00 0.21 0.00 92 1016.6
20260507095905 47 349 1.0 2.0 0.00 0.21 0.00 92 1016.6
20260507095405 47 349 1.0 3.0 0.00 0.21 0.00 92 1016.5
20260507094905 47 350 1.0 2.0 0.00 0.21 0.00 92 1016.6
20260507094405 47 350 0.0 0.0 0.00 0.21 0.00 92 1016.4
20260507093905 47 350 0.0 1.0 0.00 0.21 0.00 92 1016.3
20260507093405 47 350 0.0 1.0 0.00 0.21 0.00 92 1016.4
20260507092905 48 350 0.0 2.0 0.00 0.21 0.00 92 1016.3
20260507092405 48 350 0.0 1.0 0.00 0.21 0.00 92 1016.4
20260507090905 48 350 1.0 3.0 0.00 0.21 0.00 92 1016.1
20260507085904 48 350 1.0 2.0 0.00 0.22 0.00 92 1016.2
20260507084904 48 350 1.0 3.0 0.00 0.25 0.00 92 1016.1
20260507084404 48 350 1.0 2.0 0.00 0.27 0.00 92 1016.3
20260507083904 48 350 0.0 1.0 0.00 0.28 0.00 92 1016.2
20260507082904 49 350 1.0 2.0 0.00 0.30 0.00 92 1016.4
20260507082404 49 350 1.0 3.0 0.00 0.30 0.00 91 1016.5
20260507081904 49 350 1.0 2.0 0.00 0.30 0.00 91 1016.3
20260507081404 49 350 1.0 1.0 0.00 0.30 0.00 91 1016.3
20260507080904 49 350 1.0 2.0 0.00 0.30 0.00 91 1016.3
20260507080404 49 350 1.0 2.0 0.00 0.30 0.00 91 1016.1
20260507075904 50 350 1.0 2.0 0.00 0.30 0.00 91 1016.2
20260507075404 50 350 1.0 3.0 0.00 0.30 0.00 91 1016.2
20260507074404 50 350 1.0 3.0 0.00 0.30 0.00 91 1016.2
20260507073904 50 350 1.0 3.0 0.00 0.30 0.00 91 1016.3
20260507073404 50 350 2.0 3.0 0.00 0.30 0.00 91 1016.3
20260507072404 51 348 1.0 3.0 0.00 0.31 0.00 91 1016.4
20260507071904 51 348 1.0 3.0 0.00 0.31 0.00 91 1016.5
20260507071404 51 348 1.0 3.0 0.00 0.31 0.00 91 1016.4
20260507070904 51 350 2.0 3.0 0.00 0.31 0.00 91 1016.4
20260507070404 51 351 1.0 2.0 0.00 0.32 0.00 91 1016.4
20260507065404 51 352 2.0 3.0 0.00 0.38 0.00 92 1016.3
20260507064904 51 0 1.0 3.0 0.00 0.40 0.00 92 1016.1
20260507064404 51 0 3.0 5.0 0.00 0.42 0.00 92 1015.8
20260507062904 51 40 1.0 3.0 0.00 0.51 0.00 92 1016.0
20260507061404 51 351 1.0 3.0 0.00 0.53 0.00 92 1016.4
20260507060904 51 351 2.0 3.0 0.00 0.53 0.00 92 1016.3
20260507055904 51 355 2.0 3.0 0.00 0.53 0.00 92 1016.2
20260507055404 51 355 3.0 3.0 0.00 0.53 0.00 92 1016.4
20260507054404 51 5 2.0 3.0 0.00 0.53 0.00 92 1016.2
20260507053904 51 5 1.0 3.0 0.00 0.53 0.00 92 1016.1
20260507053404 51 5 1.0 3.0 0.00 0.53 0.00 92 1016.3
20260507052904 51 5 1.0 3.0 0.00 0.53 0.00 92 1016.2
20260507052404 51 5 2.0 3.0 0.00 0.53 0.00 92 1016.0
20260507051905 51 5 1.0 2.0 0.00 0.53 0.00 92 1016.4
20260507051404 51 5 0.0 2.0 0.00 0.53 0.00 92 1016.4
20260507050905 51 5 2.0 3.0 0.00 0.53 0.00 92 1016.4
20260507050404 51 5 1.0 3.0 0.00 0.53 0.00 92 1016.4
20260507045904 51 8 2.0 3.0 0.00 0.53 0.53 92 1016.3
20260507044904 51 27 1.0 2.0 0.00 0.53 0.53 92 1015.9
20260507044404 51 27 0.0 0.0 0.00 0.53 0.53 92 1016.2
20260507043904 51 27 0.0 0.0 0.00 0.53 0.53 92 1016.3
20260507043404 51 27 0.0 0.0 0.00 0.53 0.53 92 1016.5
20260507042904 51 27 0.0 0.0 0.00 0.53 0.53 92 1016.7
20260507041904 51 27 0.0 0.0 0.00 0.53 0.53 92 1016.7
20260507041404 51 27 0.0 0.0 0.00 0.53 0.53 92 1016.6
20260507040904 51 27 0.0 0.0 0.00 0.53 0.53 91 1016.7
20260507035905 51 27 0.0 0.0 0.00 0.53 0.53 91 1016.7
20260507035405 51 27 0.0 0.0 0.00 0.53 0.53 91 1016.7
20260507034905 51 27 0.0 0.0 0.00 0.53 0.53 91 1016.8
20260507034405 51 27 0.0 0.0 0.00 0.53 0.53 91 1017.0
20260507033904 52 27 0.0 0.0 0.00 0.53 0.53 91 1016.8
20260507033405 52 27 0.0 0.0 0.00 0.53 0.53 91 1016.7
20260507032905 52 27 0.0 0.0 0.00 0.53 0.53 91 1016.6
20260507032405 52 27 0.0 1.0 0.00 0.53 0.53 91 1016.3
20260507031905 52 27 1.0 3.0 0.00 0.53 0.53 90 1016.2
20260507031404 52 18 1.0 3.0 0.00 0.53 0.53 90 1016.2
20260507030904 52 18 1.0 3.0 0.00 0.53 0.53 90 1016.0
20260507030404 52 18 1.0 2.0 0.00 0.53 0.53 91 1015.9
20260507025904 52 18 0.0 2.0 0.00 0.53 0.53 91 1015.9
20260507025404 52 18 2.0 3.0 0.00 0.53 0.53 91 1016.0
20260507024904 52 32 1.0 5.0 0.00 0.53 0.53 91 1015.9
20260507024404 52 39 2.0 5.0 0.00 0.53 0.53 91 1015.8
20260507023904 52 23 2.0 5.0 0.00 0.53 0.53 91 1015.8
20260507023404 52 346 2.0 3.0 0.00 0.53 0.53 91 1015.6
20260507022404 52 17 2.0 3.0 0.00 0.53 0.53 91 1015.8
20260507021904 52 47 1.0 3.0 0.01 0.53 0.53 91 1015.8
20260507021404 52 48 2.0 3.0 0.01 0.53 0.53 91 1015.6
20260507020904 52 71 2.0 3.0 0.01 0.53 0.53 91 1015.6
20260507020404 52 76 1.0 2.0 0.01 0.53 0.53 91 1015.5
20260507015904 52 76 2.0 3.0 0.01 0.53 0.53 91 1015.6
20260507014904 52 33 1.0 3.0 0.01 0.53 0.53 91 1015.5
20260507014405 52 25 2.0 5.0 0.01 0.53 0.53 91 1015.2
20260507013905 52 18 2.0 5.0 0.01 0.53 0.53 91 1015.2
20260507013405 52 30 3.0 7.0 0.01 0.53 0.53 91 1015.2
20260507012904 52 22 3.0 5.0 0.01 0.53 0.53 91 1015.3
20260507012405 52 21 1.0 6.0 0.01 0.53 0.53 91 1015.6
20260507010904 52 24 2.0 3.0 0.00 0.52 0.52 91 1015.8
20260507010405 52 5 1.0 2.0 0.01 0.52 0.52 91 1015.8
20260507005905 52 6 2.0 3.0 0.01 0.52 0.52 91 1015.6
20260507005405 52 14 2.0 5.0 0.01 0.52 0.52 91 1015.4
20260507004904 52 347 3.0 6.0 0.01 0.52 0.52 91 1015.7
20260507004404 52 48 3.0 6.0 0.01 0.52 0.52 91 1015.5
20260507003904 52 49 2.0 3.0 0.01 0.52 0.52 91 1015.4
20260507003404 52 49 1.0 3.0 0.01 0.52 0.52 91 1015.3
20260507002904 52 50 2.0 5.0 0.01 0.52 0.52 91 1015.4
20260507002404 52 53 3.0 3.0 0.01 0.52 0.52 90 1015.2
20260507001904 52 11 1.0 3.0 0.01 0.52 0.52 90 1016.2
20260507001404 52 8 2.0 3.0 0.01 0.52 0.52 90 1016.5
20260507000904 52 0 3.0 5.0 0.01 0.52 0.52 90 1016.4
20260507000405 52 0 2.0 5.0 0.00 0.51 0.51 90 1016.1
20260506235904 53 349 3.0 8.0 0.00 0.51 0.51 90 1015.9
20260506235405 53 355 2.0 3.0 0.00 0.51 0.51 90 1016.1
20260506234904 53 355 3.0 3.0 0.00 0.51 0.51 90 1015.9
20260506234404 53 355 2.0 5.0 0.00 0.51 0.51 90 1015.8
20260506233904 53 340 3.0 6.0 0.00 0.51 0.51 89 1015.6
20260506233404 53 13 3.0 5.0 0.00 0.51 0.51 89 1015.1
20260506232904 53 351 3.0 3.0 0.00 0.51 0.51 89 1015.0
20260506232404 53 25 2.0 3.0 0.00 0.51 0.51 89 1014.8
20260506231404 53 56 2.0 3.0 0.00 0.51 0.51 90 1014.5
20260506230905 53 56 2.0 3.0 0.00 0.51 0.51 90 1014.4
20260506230405 53 56 3.0 9.0 0.00 0.51 0.51 90 1014.3
20260506225905 53 39 5.0 10.0 0.00 0.51 0.51 90 1014.0
20260506225404 53 47 3.0 10.0 0.00 0.51 0.51 90 1014.1
20260506224905 53 57 6.0 12.0 0.00 0.51 0.51 90 1014.1
20260506224404 53 40 3.0 7.0 0.01 0.51 0.51 90 1013.9
20260506222404 53 46 5.0 10.0 0.01 0.51 0.51 90 1014.3
20260506221905 53 37 5.0 9.0 0.01 0.51 0.51 90 1014.4
20260506221404 53 358 5.0 8.0 0.02 0.51 0.51 90 1014.4
20260506220904 53 41 5.0 9.0 0.02 0.51 0.51 90 1014.3
20260506220404 53 47 5.0 10.0 0.02 0.51 0.51 90 1014.3
20260506215905 53 33 5.0 10.0 0.02 0.51 0.51 90 1014.9
20260506214904 53 13 2.0 5.0 0.04 0.51 0.51 90 1015.7
20260506213404 53 335 2.0 5.0 0.04 0.50 0.50 90 1015.2
20260506212904 53 6 2.0 9.0 0.04 0.50 0.50 90 1014.8
20260506212405 53 351 3.0 6.0 0.04 0.50 0.50 89 1014.7
20260506211904 53 348 2.0 5.0 0.04 0.50 0.50 89 1014.9
20260506211405 53 8 2.0 3.0 0.03 0.49 0.49 89 1014.8
20260506210904 53 342 3.0 5.0 0.03 0.49 0.49 89 1014.8
20260506210404 53 44 2.0 5.0 0.03 0.49 0.49 88 1014.8
20260506205904 53 37 2.0 5.0 0.03 0.49 0.49 88 1014.8
20260506205404 54 18 3.0 6.0 0.02 0.48 0.48 88 1015.1
20260506204905 54 2 3.0 5.0 0.01 0.47 0.47 87 1015.3
20260506204404 54 28 2.0 6.0 0.00 0.46 0.46 86 1014.9
20260506203904 54 345 3.0 8.0 0.00 0.46 0.46 86 1015.4
20260506203404 54 357 3.0 8.0 0.00 0.46 0.46 85 1015.7
20260506202905 54 345 4.0 8.0 0.00 0.46 0.46 85 1015.8
20260506202404 54 335 5.0 9.0 0.00 0.46 0.46 85 1015.5
20260506201905 55 343 3.0 7.0 0.00 0.46 0.46 85 1015.2
20260506201404 55 30 3.0 6.0 0.00 0.47 0.46 85 1014.9
20260506195905 55 353 4.0 9.0 0.00 0.47 0.46 84 1015.1
20260506195404 55 55 3.0 9.0 0.00 0.47 0.46 85 1015.1
20260506194904 54 342 5.0 10.0 0.00 0.47 0.46 85 1015.5
20260506194404 54 342 5.0 10.0 0.00 0.48 0.46 85 1016.0
20260506193905 54 350 5.0 9.0 0.00 0.48 0.46 85 1016.0
20260506192904 54 340 5.0 10.0 0.00 0.48 0.46 85 1015.9
20260506192404 54 337 3.0 6.0 0.00 0.48 0.46 86 1015.8
20260506191405 54 23 5.0 10.0 0.00 0.49 0.46 86 1015.7
20260506190905 54 359 4.0 9.0 0.00 0.49 0.46 86 1015.3
20260506190404 54 4 3.0 6.0 0.00 0.49 0.46 87 1015.0
20260506185904 53 37 5.0 9.0 0.00 0.49 0.46 87 1015.0
20260506185404 53 4 3.0 9.0 0.00 0.49 0.46 87 1015.1
20260506184404 53 4 5.0 9.0 0.00 0.50 0.46 87 1015.3
20260506183905 53 1 5.0 10.0 0.00 0.51 0.46 87 1015.1
20260506182904 53 355 6.0 9.0 0.00 0.52 0.46 87 1015.5
20260506180905 53 17 3.0 6.0 0.00 0.54 0.46 89 1014.9
20260506180404 53 353 5.0 10.0 0.00 0.54 0.46 89 1015.1
20260506175905 53 0 5.0 9.0 0.00 0.54 0.46 89 1015.3
20260506175404 53 9 2.0 9.0 0.00 0.54 0.46 90 1015.2
20260506174904 53 345 3.0 9.0 0.00 0.54 0.46 90 1015.0
20260506174404 52 37 3.0 5.0 0.00 0.54 0.46 90 1015.1
20260506173904 52 78 3.0 6.0 0.00 0.54 0.46 90 1015.5
20260506173404 52 56 4.0 8.0 0.00 0.54 0.46 91 1015.7
20260506172904 52 37 5.0 9.0 0.00 0.54 0.46 91 1015.3
20260506172404 51 43 5.0 10.0 0.00 0.55 0.46 91 1014.9
20260506171904 51 354 5.0 12.0 0.00 0.55 0.46 91 1015.5
20260506171404 51 352 4.0 10.0 0.00 0.55 0.46 91 1015.6
20260506170904 51 340 3.0 9.0 0.00 0.55 0.46 91 1015.5
20260506165404 50 349 7.0 12.0 0.00 0.55 0.46 92 1015.1
20260506164404 50 47 5.0 10.0 0.00 0.55 0.46 92 1015.0
20260506163904 50 27 5.0 10.0 0.00 0.55 0.46 92 1015.0
20260506163404 51 4 5.0 10.0 0.00 0.55 0.46 91 1015.0
20260506162905 51 349 3.0 8.0 0.00 0.55 0.46 91 1015.0
20260506162404 51 337 5.0 12.0 0.00 0.55 0.46 91 1014.7
20260506161904 51 336 7.0 12.0 0.00 0.55 0.46 91 1014.8
20260506161405 51 338 3.0 8.0 0.00 0.55 0.46 91 1014.8
20260506160404 51 1 4.0 8.0 0.00 0.55 0.46 91 1014.3
20260506155904 51 16 5.0 10.0 0.00 0.55 0.46 91 1014.3
20260506154904 50 36 3.0 8.0 0.00 0.55 0.46 91 1014.8
20260506154405 51 355 5.0 8.0 0.00 0.55 0.46 91 1014.9
20260506153904 51 349 5.0 12.0 0.00 0.55 0.46 91 1014.7